| time (UTC) | temp F | wind direction | speed knots | gust knots | rain 1hr in | rain 24hr in | rain mn in | humidity % | barometer mb |
| 20260505011520 | 66 | 229 | 1.7 | 5.2 | 0.00 | 0.00 | 0.00 | 47 | 1009.9 |
| 20260505011005 | 66 | 192 | 1.7 | 4.3 | 0.00 | 0.00 | 0.00 | 47 | 1009.8 |
| 20260505010508 | 66 | 200 | 2.6 | 4.3 | 0.00 | 0.00 | 0.00 | 47 | 1009.8 |
| 20260505010023 | 66 | 198 | 1.7 | 6.1 | 0.00 | 0.00 | 0.00 | 46 | 1009.8 |
| 20260505005508 | 66 | 255 | 2.6 | 6.1 | 0.00 | 0.00 | 0.00 | 46 | 1009.8 |
| 20260505005009 | 66 | 192 | 2.6 | 5.2 | 0.00 | 0.00 | 0.00 | 45 | 1009.7 |
| 20260505004525 | 66 | 145 | 2.6 | 6.1 | 0.00 | 0.00 | 0.00 | 45 | 1009.7 |
| 20260505004008 | 66 | 191 | 1.7 | 6.1 | 0.00 | 0.00 | 0.00 | 45 | 1009.7 |
| 20260505003508 | 67 | 226 | 2.6 | 7.8 | 0.00 | 0.00 | 0.00 | 44 | 1009.6 |
| 20260505003012 | 67 | 182 | 1.7 | 7.8 | 0.00 | 0.00 | 0.00 | 44 | 1009.6 |
| 20260505002504 | 67 | 184 | 2.6 | 7.8 | 0.00 | 0.00 | 0.00 | 44 | 1009.6 |
| 20260505002007 | 67 | 210 | 2.6 | 7.8 | 0.00 | 0.00 | 0.00 | 43 | 1009.6 |
| 20260505001520 | 67 | 194 | 1.7 | 6.1 | 0.00 | 0.00 | 0.00 | 43 | 1009.5 |
| 20260505001007 | 67 | 190 | 1.7 | 6.1 | 0.00 | 0.00 | 0.00 | 43 | 1009.6 |
| 20260505000508 | 67 | 172 | 1.7 | 6.1 | 0.00 | 0.00 | 0.00 | 43 | 1009.6 |
| 20260505000023 | 68 | 173 | 1.7 | 6.1 | 0.00 | 0.00 | 0.00 | 42 | 1009.6 |
| 20260504235510 | 68 | 242 | 1.7 | 5.2 | 0.00 | 0.00 | 0.00 | 42 | 1009.7 |
| 20260504235011 | 68 | 185 | 1.7 | 5.2 | 0.00 | 0.00 | 0.00 | 41 | 1009.6 |
| 20260504234528 | 68 | 195 | 1.7 | 7.0 | 0.00 | 0.00 | 0.00 | 42 | 1009.6 |
| 20260504234010 | 69 | 202 | 2.6 | 8.7 | 0.00 | 0.00 | 0.00 | 41 | 1009.6 |
| 20260504233508 | 69 | 202 | 3.5 | 8.7 | 0.00 | 0.00 | 0.00 | 40 | 1009.6 |
| 20260504233026 | 69 | 197 | 3.5 | 10.4 | 0.00 | 0.00 | 0.00 | 40 | 1009.4 |
| 20260504232512 | 70 | 180 | 2.6 | 13.0 | 0.00 | 0.00 | 0.00 | 40 | 1009.5 |
| 20260504232010 | 70 | 186 | 3.5 | 13.0 | 0.00 | 0.00 | 0.00 | 39 | 1009.6 |
| 20260504231515 | 70 | 189 | 4.3 | 11.3 | 0.00 | 0.00 | 0.00 | 39 | 1009.5 |
| 20260504231007 | 71 | 206 | 3.5 | 11.3 | 0.00 | 0.00 | 0.00 | 39 | 1009.5 |
| 20260504230507 | 71 | 155 | 5.2 | 8.7 | 0.00 | 0.00 | 0.00 | 38 | 1009.5 |
| 20260504230022 | 71 | 185 | 2.6 | 7.8 | 0.00 | 0.00 | 0.00 | 39 | 1009.5 |
| 20260504225510 | 72 | 175 | 3.5 | 9.6 | 0.00 | 0.00 | 0.00 | 37 | 1009.5 |
| 20260504225009 | 72 | 184 | 5.2 | 9.6 | 0.00 | 0.00 | 0.00 | 36 | 1009.4 |
| 20260504224531 | 73 | 227 | 1.7 | 9.6 | 0.00 | 0.00 | 0.00 | 35 | 1009.4 |
| 20260504224006 | 73 | 194 | 5.2 | 9.6 | 0.00 | 0.00 | 0.00 | 34 | 1009.3 |
| 20260504223511 | 73 | 232 | 4.3 | 11.3 | 0.00 | 0.00 | 0.00 | 34 | 1009.4 |
| 20260504223030 | 73 | 250 | 4.3 | 12.2 | 0.00 | 0.00 | 0.00 | 34 | 1009.3 |
| 20260504222510 | 73 | 198 | 5.2 | 12.2 | 0.00 | 0.00 | 0.00 | 33 | 1009.3 |
| 20260504222009 | 73 | 211 | 2.6 | 9.6 | 0.00 | 0.00 | 0.00 | 34 | 1009.2 |
| 20260504221526 | 74 | 188 | 2.6 | 11.3 | 0.00 | 0.00 | 0.00 | 34 | 1009.2 |
| 20260504221009 | 74 | 244 | 5.2 | 11.3 | 0.00 | 0.00 | 0.00 | 32 | 1009.2 |
| 20260504220507 | 74 | 227 | 4.3 | 11.3 | 0.00 | 0.00 | 0.00 | 36 | 1009.2 |
| 20260504220018 | 74 | 179 | 5.2 | 11.3 | 0.00 | 0.00 | 0.00 | 33 | 1009.3 |
| 20260504215512 | 74 | 240 | 2.6 | 14.8 | 0.00 | 0.00 | 0.00 | 33 | 1009.4 |
| 20260504215011 | 74 | 216 | 4.3 | 14.8 | 0.00 | 0.00 | 0.00 | 32 | 1009.4 |
| 20260504214535 | 74 | 213 | 5.2 | 12.2 | 0.00 | 0.00 | 0.00 | 33 | 1009.3 |
| 20260504214014 | 74 | 204 | 6.1 | 12.2 | 0.00 | 0.00 | 0.00 | 32 | 1009.4 |
| 20260504213510 | 75 | 268 | 5.2 | 12.2 | 0.00 | 0.00 | 0.00 | 34 | 1009.3 |
| 20260504213028 | 75 | 171 | 2.6 | 7.0 | 0.00 | 0.00 | 0.00 | 33 | 1009.4 |
| 20260504212512 | 75 | 222 | 2.6 | 7.0 | 0.00 | 0.00 | 0.00 | 33 | 1009.4 |
| 20260504212013 | 74 | 234 | 3.5 | 10.4 | 0.00 | 0.00 | 0.00 | 33 | 1009.4 |
| 20260504211530 | 74 | 232 | 5.2 | 10.4 | 0.00 | 0.00 | 0.00 | 33 | 1009.4 |
| 20260504211010 | 74 | 221 | 6.1 | 11.3 | 0.00 | 0.00 | 0.00 | 32 | 1009.4 |
| 20260504210517 | 75 | 182 | 4.3 | 11.3 | 0.00 | 0.00 | 0.00 | 33 | 1009.4 |
| 20260504210030 | 75 | 223 | 5.2 | 10.4 | 0.00 | 0.00 | 0.00 | 32 | 1009.5 |
| 20260504205507 | 75 | 150 | 3.5 | 9.6 | 0.00 | 0.00 | 0.00 | 34 | 1009.6 |
| 20260504205008 | 75 | 234 | 3.5 | 12.2 | 0.00 | 0.00 | 0.00 | 35 | 1009.5 |
| 20260504204522 | 74 | 303 | 4.3 | 12.2 | 0.00 | 0.00 | 0.00 | 33 | 1009.6 |
| 20260504204006 | 75 | 219 | 3.5 | 10.4 | 0.00 | 0.00 | 0.00 | 33 | 1009.6 |
| 20260504203509 | 75 | 264 | 3.5 | 8.7 | 0.00 | 0.00 | 0.00 | 32 | 1009.7 |
| 20260504203024 | 75 | 184 | 4.3 | 9.6 | 0.00 | 0.00 | 0.00 | 33 | 1009.8 |
| 20260504202508 | 75 | 204 | 3.5 | 9.6 | 0.00 | 0.00 | 0.00 | 33 | 1009.9 |
| 20260504202013 | 74 | 161 | 4.3 | 10.4 | 0.00 | 0.00 | 0.00 | 32 | 1010.0 |
| 20260504201526 | 74 | 258 | 2.6 | 11.3 | 0.00 | 0.00 | 0.00 | 34 | 1010.1 |
| 20260504201013 | 74 | 171 | 4.3 | 11.3 | 0.00 | 0.00 | 0.00 | 33 | 1010.2 |
| 20260504200511 | 74 | 216 | 5.2 | 10.4 | 0.00 | 0.00 | 0.00 | 32 | 1010.3 |
| 20260504200035 | 74 | 147 | 3.5 | 7.0 | 0.00 | 0.00 | 0.00 | 33 | 1010.3 |
| 20260504195507 | 74 | 189 | 3.5 | 10.4 | 0.00 | 0.00 | 0.00 | 34 | 1010.4 |
| 20260504195007 | 74 | 238 | 4.3 | 11.3 | 0.00 | 0.00 | 0.00 | 32 | 1010.6 |
| 20260504194519 | 74 | 245 | 5.2 | 11.3 | 0.00 | 0.00 | 0.00 | 33 | 1010.7 |
| 20260504194007 | 74 | 213 | 5.2 | 12.2 | 0.00 | 0.00 | 0.00 | 33 | 1010.9 |
| 20260504193514 | 73 | 174 | 6.1 | 12.2 | 0.00 | 0.00 | 0.00 | 34 | 1010.8 |
| 20260504193026 | 73 | 204 | 6.1 | 9.6 | 0.00 | 0.00 | 0.00 | 34 | 1010.9 |
| 20260504192514 | 73 | 184 | 6.1 | 9.6 | 0.00 | 0.00 | 0.00 | 33 | 1010.9 |
| 20260504192010 | 74 | 202 | 3.5 | 8.7 | 0.00 | 0.00 | 0.00 | 32 | 1010.9 |
| 20260504191526 | 74 | 194 | 3.5 | 9.6 | 0.00 | 0.00 | 0.00 | 35 | 1010.9 |
| 20260504191013 | 73 | 285 | 4.3 | 9.6 | 0.00 | 0.00 | 0.00 | 36 | 1011.0 |
| 20260504190511 | 73 | 184 | 4.3 | 12.2 | 0.00 | 0.00 | 0.00 | 33 | 1011.0 |
| 20260504190028 | 73 | 221 | 4.3 | 12.2 | 0.00 | 0.00 | 0.00 | 33 | 1011.1 |
| 20260504185510 | 73 | 146 | 3.5 | 12.2 | 0.00 | 0.00 | 0.00 | 33 | 1011.1 |
| 20260504185009 | 73 | 121 | 6.1 | 11.3 | 0.00 | 0.00 | 0.00 | 33 | 1011.2 |
| 20260504184536 | 73 | 205 | 3.5 | 9.6 | 0.00 | 0.00 | 0.00 | 35 | 1011.2 |
| 20260504184009 | 72 | 191 | 3.5 | 10.4 | 0.00 | 0.00 | 0.00 | 37 | 1011.3 |
| 20260504183512 | 72 | 211 | 4.3 | 10.4 | 0.00 | 0.00 | 0.00 | 34 | 1011.3 |
| 20260504183031 | 73 | 173 | 4.3 | 9.6 | 0.00 | 0.00 | 0.00 | 34 | 1011.4 |
| 20260504182508 | 73 | 225 | 3.5 | 9.6 | 0.00 | 0.00 | 0.00 | 33 | 1011.5 |
| 20260504182016 | 73 | 223 | 4.3 | 8.7 | 0.00 | 0.00 | 0.00 | 32 | 1011.7 |
| 20260504181526 | 73 | 192 | 4.3 | 8.7 | 0.00 | 0.00 | 0.00 | 32 | 1011.7 |
| 20260504181010 | 73 | 200 | 2.6 | 8.7 | 0.00 | 0.00 | 0.00 | 32 | 1011.9 |
| 20260504180507 | 73 | 212 | 4.3 | 10.4 | 0.00 | 0.00 | 0.00 | 32 | 1012.0 |
| 20260504180027 | 73 | 157 | 5.2 | 10.4 | 0.00 | 0.00 | 0.00 | 35 | 1012.0 |
| 20260504175507 | 72 | 205 | 3.5 | 9.6 | 0.00 | 0.00 | 0.00 | 33 | 1012.0 |
| 20260504175011 | 72 | 273 | 2.6 | 10.4 | 0.00 | 0.00 | 0.00 | 34 | 1012.0 |
| 20260504174528 | 73 | 190 | 6.1 | 10.4 | 0.00 | 0.00 | 0.00 | 34 | 1011.9 |
| 20260504174010 | 72 | 198 | 3.5 | 9.6 | 0.00 | 0.00 | 0.00 | 35 | 1012.0 |
| 20260504173512 | 72 | 194 | 3.5 | 9.6 | 0.00 | 0.00 | 0.00 | 34 | 1011.9 |
| 20260504173021 | 72 | 197 | 4.3 | 9.6 | 0.00 | 0.00 | 0.00 | 33 | 1012.0 |
| 20260504172512 | 72 | 159 | 3.5 | 9.6 | 0.00 | 0.00 | 0.00 | 34 | 1012.1 |
| 20260504172011 | 72 | 261 | 4.3 | 9.6 | 0.00 | 0.00 | 0.00 | 35 | 1012.0 |
| 20260504171525 | 71 | 178 | 5.2 | 8.7 | 0.00 | 0.00 | 0.00 | 34 | 1012.1 |
| 20260504171004 | 71 | 195 | 2.6 | 8.7 | 0.00 | 0.00 | 0.00 | 38 | 1012.1 |
| 20260504170503 | 71 | 202 | 4.3 | 8.7 | 0.00 | 0.00 | 0.00 | 35 | 1012.3 |
| 20260504151007 | 65 | 186 | 0.9 | 7.8 | 0.00 | 0.00 | 0.00 | 51 | 1013.6 |
| 20260504150510 | 65 | 221 | 1.7 | 7.0 | 0.00 | 0.00 | 0.00 | 48 | 1013.6 |
| 20260504141013 | 62 | 258 | 3.5 | 10.4 | 0.00 | 0.00 | 0.00 | 53 | 1013.7 |
| 20260504140503 | 62 | 183 | 2.6 | 7.8 | 0.00 | 0.00 | 0.00 | 53 | 1013.8 |
| 20260504130507 | 59 | 229 | 3.5 | 10.4 | 0.00 | 0.00 | 0.00 | 57 | 1014.1 |
| 20260504110506 | 54 | 190 | 3.5 | 6.1 | 0.00 | 0.00 | 0.00 | 69 | 1014.5 |
| 20260504100505 | 52 | 183 | 0.9 | 4.3 | 0.00 | 0.00 | 0.00 | 77 | 1014.4 |
| 20260504081529 | 52 | 183 | 1.7 | 3.5 | 0.00 | 0.00 | 0.00 | 76 | 1014.9 |
| 20260504081009 | 53 | 188 | 1.7 | 3.5 | 0.00 | 0.00 | 0.00 | 76 | 1015.0 |
| 20260504080517 | 53 | 201 | 0.9 | 4.3 | 0.00 | 0.00 | 0.00 | 76 | 1015.0 |
| 20260504050503 | 40 | 109 | 0.0 | 0.0 | 0.00 | 0.00 | 0.00 | 88 | 1015.0 |
| 20260504050006 | 41 | 109 | 0.0 | 0.0 | 0.00 | 0.00 | 0.00 | 89 | 1015.0 |
| 20260504045503 | 40 | 109 | 0.0 | 0.0 | 0.00 | 0.00 | 0.00 | 89 | 1015.0 |
| 20260504045005 | 40 | 109 | 0.0 | 0.0 | 0.00 | 0.00 | 0.00 | 89 | 1015.0 |
| 20260504044513 | 40 | 109 | 0.0 | 0.0 | 0.00 | 0.00 | 0.00 | 88 | 1015.1 |
| 20260504044006 | 40 | 109 | 0.0 | 0.0 | 0.00 | 0.00 | 0.00 | 88 | 1015.0 |
| 20260504043504 | 40 | 109 | 0.0 | 0.0 | 0.00 | 0.00 | 0.00 | 88 | 1015.0 |
| 20260504043013 | 40 | 109 | 0.0 | 0.0 | 0.00 | 0.00 | 0.00 | 88 | 1014.9 |
| 20260504042504 | 40 | 109 | 0.0 | 0.0 | 0.00 | 0.00 | 0.00 | 88 | 1014.8 |
| 20260504042004 | 40 | 109 | 0.0 | 0.0 | 0.00 | 0.00 | 0.00 | 87 | 1014.7 |
| 20260504041511 | 40 | 109 | 0.0 | 0.0 | 0.00 | 0.00 | 0.00 | 87 | 1014.7 |
| 20260504041003 | 40 | 109 | 0.0 | 0.0 | 0.00 | 0.00 | 0.00 | 87 | 1014.9 |
| 20260504040503 | 40 | 109 | 0.0 | 0.0 | 0.00 | 0.00 | 0.00 | 86 | 1014.8 |
| 20260504040006 | 40 | 109 | 0.0 | 0.0 | 0.00 | 0.00 | 0.00 | 86 | 1014.6 |
| 20260504035503 | 40 | 109 | 0.0 | 0.0 | 0.00 | 0.00 | 0.00 | 87 | 1014.7 |
| 20260504035003 | 40 | 109 | 0.0 | 0.0 | 0.00 | 0.00 | 0.00 | 86 | 1014.7 |
| 20260504034510 | 40 | 109 | 0.0 | 0.0 | 0.00 | 0.00 | 0.00 | 86 | 1014.6 |
| 20260504034004 | 40 | 109 | 0.0 | 0.0 | 0.00 | 0.00 | 0.00 | 86 | 1014.7 |
| 20260504033504 | 40 | 109 | 0.0 | 0.0 | 0.00 | 0.00 | 0.00 | 86 | 1014.6 |
| 20260504033015 | 41 | 109 | 0.0 | 0.0 | 0.00 | 0.00 | 0.00 | 85 | 1014.6 |
| 20260504032504 | 41 | 109 | 0.0 | 0.0 | 0.00 | 0.00 | 0.00 | 84 | 1014.5 |
| 20260504032004 | 41 | 109 | 0.0 | 0.0 | 0.00 | 0.00 | 0.00 | 85 | 1014.5 |
| 20260504031515 | 41 | 109 | 0.0 | 0.0 | 0.00 | 0.00 | 0.00 | 84 | 1014.6 |
| 20260504031003 | 41 | 109 | 0.0 | 0.0 | 0.00 | 0.00 | 0.00 | 84 | 1014.5 |
| 20260504030504 | 41 | 109 | 0.0 | 0.0 | 0.00 | 0.00 | 0.00 | 84 | 1014.5 |
| 20260504030014 | 41 | 109 | 0.0 | 0.0 | 0.00 | 0.00 | 0.00 | 84 | 1014.5 |
| 20260504025504 | 42 | 109 | 0.0 | 0.0 | 0.00 | 0.00 | 0.00 | 82 | 1014.5 |
| 20260504025006 | 42 | 109 | 0.0 | 0.0 | 0.00 | 0.00 | 0.00 | 82 | 1014.4 |
| 20260504024506 | 42 | 109 | 0.0 | 0.0 | 0.00 | 0.00 | 0.00 | 82 | 1014.3 |
| 20260504024003 | 42 | 109 | 0.0 | 0.0 | 0.00 | 0.00 | 0.00 | 81 | 1014.3 |
| 20260504023504 | 42 | 109 | 0.0 | 0.0 | 0.00 | 0.00 | 0.00 | 80 | 1014.3 |
| 20260504023010 | 43 | 109 | 0.0 | 0.0 | 0.00 | 0.00 | 0.00 | 78 | 1014.2 |
| 20260504022508 | 43 | 109 | 0.0 | 0.0 | 0.00 | 0.00 | 0.00 | 78 | 1014.2 |
| 20260504022004 | 43 | 109 | 0.0 | 0.0 | 0.00 | 0.00 | 0.00 | 79 | 1014.3 |
| 20260504021513 | 43 | 109 | 0.0 | 0.0 | 0.00 | 0.00 | 0.00 | 76 | 1014.3 |
| 20260504021007 | 43 | 109 | 0.0 | 0.0 | 0.00 | 0.00 | 0.00 | 78 | 1014.3 |
| 20260504020504 | 43 | 109 | 0.0 | 0.0 | 0.00 | 0.00 | 0.00 | 77 | 1014.3 |
| 20260504020020 | 43 | 109 | 0.0 | 0.0 | 0.00 | 0.00 | 0.00 | 77 | 1014.3 |
| 20260504015507 | 44 | 109 | 0.0 | 0.0 | 0.00 | 0.00 | 0.00 | 75 | 1014.3 |
| 20260504015004 | 44 | 109 | 0.0 | 0.0 | 0.00 | 0.00 | 0.00 | 75 | 1014.2 |
| 20260504014514 | 44 | 109 | 0.0 | 0.0 | 0.00 | 0.00 | 0.00 | 74 | 1014.2 |
| 20260504014003 | 44 | 109 | 0.0 | 0.0 | 0.00 | 0.00 | 0.00 | 74 | 1014.2 |
| 20260504013503 | 44 | 109 | 0.0 | 0.0 | 0.00 | 0.00 | 0.00 | 73 | 1014.2 |
| 20260504013008 | 45 | 109 | 0.0 | 0.0 | 0.00 | 0.00 | 0.00 | 72 | 1014.3 |
| 20260504012504 | 45 | 109 | 0.0 | 0.0 | 0.00 | 0.00 | 0.00 | 72 | 1014.3 |
| 20260504012005 | 45 | 109 | 0.0 | 1.7 | 0.00 | 0.00 | 0.00 | 74 | 1014.2 |